Terminal Aerodrome Forecast
Issued by NWS

Home | Current Version | Previous Version | Graphics & Text | Print | Product List | Glossary On
Versions: 1 2 3 4 5 6 7 8 9 10 11 12 13 14 15 16 17 18 19 20 21 22 23
930
FTUS43 KGRB 200520
TAFCWA
TAF
KCWA 200520Z 2006/2106 14006KT P6SM VCSH SCT040 BKN100
      TEMPO 2006/2009 3SM TSRA BR OVC025CB
     FM200900 16003KT 5SM -SHRA BR BKN012
      TEMPO 2009/2012 2SM -TSRA OVC008CB
     FM201200 30007KT P6SM SCT015 BKN025
     FM201800 30007KT P6SM SCT030 BKN100
     FM210100 VRB03KT P6SM SKC
      AMD LTD TO CLD VIS AND WIND TIL 201100=

USA.gov is the U.S. government's official web portal to all federal, state and local government web resources and services.